| time (UTC) | temp F | wind direction | speed knots | gust knots | rain 1hr in | rain 24hr in | rain mn in | humidity % | barometer mb |
| 20260507085404 | 51 | 279 | 0.9 | 2.6 | 0.02 | 0.08 | 0.03 | 96 | 1007.0 |
| 20260507084404 | 51 | 257 | 0.9 | 2.6 | 0.03 | 0.08 | 0.03 | 95 | 1007.1 |
| 20260507083404 | 51 | 281 | 1.7 | 2.6 | 0.03 | 0.08 | 0.03 | 95 | 1006.7 |
| 20260507082403 | 52 | 249 | 0.0 | 2.6 | 0.02 | 0.07 | 0.02 | 94 | 1007.2 |
| 20260507080404 | 53 | 305 | 1.7 | 4.3 | 0.01 | 0.06 | 0.01 | 94 | 1007.3 |
| 20260507075403 | 53 | 282 | 1.7 | 5.2 | 0.01 | 0.06 | 0.01 | 93 | 1006.8 |
| 20260507074404 | 54 | 293 | 1.7 | 5.2 | 0.00 | 0.05 | 0.00 | 91 | 1006.7 |
| 20260507072403 | 55 | 289 | 1.7 | 2.6 | 0.00 | 0.05 | 0.00 | 88 | 1005.9 |
| 20260507071404 | 55 | 271 | 0.9 | 4.3 | 0.00 | 0.05 | 0.00 | 88 | 1006.0 |
| 20260507070404 | 56 | 282 | 1.7 | 4.3 | 0.00 | 0.05 | 0.00 | 89 | 1006.2 |
| 20260507065404 | 56 | 295 | 0.9 | 5.2 | 0.00 | 0.05 | 0.00 | 89 | 1006.0 |
| 20260507064404 | 56 | 291 | 1.7 | 5.2 | 0.00 | 0.05 | 0.00 | 88 | 1006.2 |
| 20260507063404 | 56 | 275 | 0.9 | 5.2 | 0.00 | 0.05 | 0.00 | 88 | 1006.4 |
| 20260507062403 | 56 | 298 | 1.7 | 2.6 | 0.00 | 0.05 | 0.00 | 88 | 1006.3 |
| 20260507061404 | 57 | 262 | 0.9 | 5.2 | 0.00 | 0.05 | 0.00 | 88 | 1005.7 |
| 20260507060403 | 57 | 9 | 0.9 | 5.2 | 0.00 | 0.05 | 0.00 | 88 | 1006.2 |
| 20260507055404 | 57 | 289 | 1.7 | 4.3 | 0.00 | 0.05 | 0.00 | 89 | 1006.2 |
| 20260507054404 | 58 | 275 | 0.9 | 2.6 | 0.00 | 0.05 | 0.00 | 90 | 1006.4 |
| 20260507053403 | 58 | 287 | 1.7 | 2.6 | 0.00 | 0.05 | 0.00 | 91 | 1006.5 |
| 20260507052406 | 59 | 267 | 0.0 | 2.6 | 0.00 | 0.05 | 0.00 | 91 | 1006.3 |
| 20260507051404 | 59 | 287 | 0.9 | 4.3 | 0.00 | 0.05 | 0.00 | 91 | 1005.9 |
| 20260507050404 | 59 | 276 | 1.7 | 5.2 | 0.00 | 0.05 | 0.00 | 91 | 1006.1 |
| 20260507045403 | 59 | 285 | 1.7 | 5.2 | 0.00 | 0.05 | 0.00 | 93 | 1006.3 |
| 20260507044404 | 59 | 291 | 1.7 | 5.2 | 0.00 | 0.05 | 0.00 | 96 | 1006.0 |
| 20260507042403 | 60 | 274 | 0.9 | 1.7 | 0.00 | 0.05 | 0.00 | 97 | 1006.0 |
| 20260507041404 | 60 | 199 | 0.0 | 1.7 | 0.00 | 0.05 | 0.00 | 97 | 1006.2 |
| 20260507040403 | 60 | 285 | 0.9 | 1.7 | 0.00 | 0.05 | 0.00 | 97 | 1006.4 |
| 20260507035404 | 60 | 188 | 0.0 | 2.6 | 0.00 | 0.05 | 0.05 | 97 | 1006.5 |
| 20260507034404 | 60 | 272 | 0.9 | 2.6 | 0.00 | 0.05 | 0.05 | 96 | 1006.2 |
| 20260507033404 | 60 | 252 | 0.9 | 2.6 | 0.00 | 0.05 | 0.05 | 96 | 1005.9 |
| 20260507032405 | 60 | 195 | 1.7 | 4.3 | 0.00 | 0.05 | 0.05 | 95 | 1005.9 |
| 20260507031404 | 60 | 200 | 0.9 | 6.1 | 0.00 | 0.05 | 0.05 | 95 | 1005.7 |
| 20260507030404 | 60 | 279 | 1.7 | 4.3 | 0.00 | 0.05 | 0.05 | 96 | 1005.5 |
| 20260507025404 | 59 | 202 | 0.0 | 4.3 | 0.00 | 0.05 | 0.05 | 96 | 1005.8 |
| 20260507024404 | 59 | 116 | 0.9 | 2.6 | 0.00 | 0.05 | 0.05 | 96 | 1005.9 |
| 20260507022404 | 59 | 245 | 1.7 | 2.6 | 0.00 | 0.05 | 0.05 | 96 | 1005.7 |
| 20260507021404 | 59 | 256 | 1.7 | 2.6 | 0.00 | 0.05 | 0.05 | 96 | 1005.7 |
| 20260507015404 | 59 | 226 | 0.0 | 1.7 | 0.00 | 0.05 | 0.05 | 97 | 1005.9 |
| 20260507014404 | 59 | 129 | 0.9 | 4.3 | 0.00 | 0.05 | 0.05 | 97 | 1005.9 |
| 20260507013404 | 58 | 150 | 0.9 | 4.3 | 0.00 | 0.05 | 0.05 | 97 | 1005.9 |
| 20260507012404 | 58 | 178 | 0.9 | 1.7 | 0.00 | 0.05 | 0.05 | 97 | 1005.9 |
| 20260507011404 | 58 | 203 | 0.9 | 2.6 | 0.00 | 0.05 | 0.05 | 97 | 1006.1 |
| 20260507010404 | 58 | 124 | 0.0 | 5.2 | 0.00 | 0.05 | 0.05 | 97 | 1006.3 |
| 20260507005404 | 58 | 192 | 0.9 | 2.6 | 0.00 | 0.05 | 0.05 | 97 | 1006.5 |
| 20260507004404 | 58 | 214 | 0.0 | 5.2 | 0.01 | 0.05 | 0.05 | 97 | 1006.1 |
| 20260507003404 | 58 | 247 | 0.9 | 5.2 | 0.01 | 0.05 | 0.05 | 97 | 1006.2 |
| 20260507002404 | 58 | 236 | 0.9 | 5.2 | 0.02 | 0.05 | 0.05 | 97 | 1006.3 |
| 20260507001404 | 58 | 135 | 0.0 | 4.3 | 0.02 | 0.05 | 0.05 | 97 | 1006.1 |
| 20260507000405 | 58 | 241 | 0.9 | 4.3 | 0.02 | 0.05 | 0.05 | 97 | 1006.0 |
| 20260506235404 | 58 | 249 | 1.7 | 4.3 | 0.02 | 0.05 | 0.05 | 97 | 1006.3 |
| 20260506234403 | 58 | 115 | 0.9 | 4.3 | 0.01 | 0.04 | 0.04 | 97 | 1005.9 |
| 20260506232403 | 59 | 250 | 0.9 | 2.6 | 0.01 | 0.03 | 0.03 | 97 | 1005.8 |
| 20260506231404 | 59 | 146 | 0.0 | 2.6 | 0.01 | 0.03 | 0.03 | 96 | 1005.6 |
| 20260506230404 | 59 | 184 | 0.9 | 4.3 | 0.01 | 0.03 | 0.03 | 96 | 1006.0 |
| 20260506225404 | 59 | 194 | 0.9 | 1.7 | 0.01 | 0.03 | 0.03 | 96 | 1005.9 |
| 20260506224403 | 60 | 238 | 0.0 | 5.2 | 0.01 | 0.03 | 0.03 | 96 | 1006.0 |
| 20260506222403 | 60 | 244 | 0.9 | 4.3 | 0.01 | 0.02 | 0.02 | 96 | 1006.3 |
| 20260506221404 | 61 | 127 | 1.7 | 4.3 | 0.01 | 0.02 | 0.02 | 95 | 1006.4 |
| 20260506220404 | 61 | 184 | 0.9 | 2.6 | 0.01 | 0.02 | 0.02 | 95 | 1006.3 |
| 20260506215404 | 61 | 155 | 0.9 | 4.3 | 0.01 | 0.02 | 0.02 | 94 | 1006.6 |
| 20260506214404 | 61 | 263 | 0.9 | 6.1 | 0.01 | 0.02 | 0.02 | 92 | 1006.9 |
| 20260506213404 | 62 | 346 | 0.9 | 5.2 | 0.00 | 0.01 | 0.01 | 90 | 1006.8 |
| 20260506212404 | 62 | 135 | 0.9 | 5.2 | 0.00 | 0.01 | 0.01 | 88 | 1006.7 |
| 20260506211404 | 62 | 266 | 1.7 | 6.1 | 0.00 | 0.01 | 0.01 | 88 | 1006.8 |
| 20260506210404 | 62 | 151 | 0.9 | 6.1 | 0.00 | 0.01 | 0.01 | 88 | 1006.7 |
| 20260506205404 | 62 | 219 | 0.9 | 5.2 | 0.00 | 0.01 | 0.01 | 88 | 1006.9 |
| 20260506204404 | 63 | 195 | 2.6 | 5.2 | 0.01 | 0.01 | 0.01 | 87 | 1007.0 |
| 20260506203404 | 63 | 239 | 0.9 | 6.1 | 0.01 | 0.01 | 0.01 | 85 | 1006.9 |
| 20260506202404 | 63 | 275 | 1.7 | 5.2 | 0.01 | 0.01 | 0.01 | 83 | 1006.9 |
| 20260506201403 | 64 | 267 | 1.7 | 5.2 | 0.01 | 0.01 | 0.01 | 83 | 1006.9 |
| 20260506195403 | 65 | 221 | 1.7 | 4.3 | 0.01 | 0.01 | 0.01 | 82 | 1006.8 |
| 20260506194403 | 65 | 133 | 0.9 | 4.3 | 0.00 | 0.00 | 0.00 | 79 | 1007.2 |
| 20260506193403 | 66 | 241 | 0.9 | 5.2 | 0.00 | 0.00 | 0.00 | 77 | 1007.3 |
| 20260506192403 | 66 | 182 | 1.7 | 6.1 | 0.00 | 0.00 | 0.00 | 75 | 1007.2 |
| 20260506191403 | 67 | 184 | 1.7 | 2.6 | 0.00 | 0.00 | 0.00 | 72 | 1007.3 |
| 20260506190403 | 69 | 135 | 0.9 | 5.2 | 0.00 | 0.00 | 0.00 | 68 | 1007.1 |
| 20260506184404 | 70 | 260 | 1.7 | 6.1 | 0.00 | 0.00 | 0.00 | 64 | 1007.2 |
| 20260506183404 | 70 | 228 | 1.7 | 5.2 | 0.00 | 0.00 | 0.00 | 63 | 1007.3 |
| 20260506182404 | 71 | 186 | 1.7 | 7.0 | 0.00 | 0.00 | 0.00 | 62 | 1007.1 |
| 20260506181404 | 71 | 139 | 0.9 | 6.1 | 0.00 | 0.00 | 0.00 | 61 | 1007.3 |
| 20260506180404 | 72 | 266 | 0.9 | 7.0 | 0.00 | 0.00 | 0.00 | 61 | 1007.2 |
| 20260506174403 | 72 | 251 | 2.6 | 6.1 | 0.00 | 0.00 | 0.00 | 61 | 1007.7 |
| 20260506173404 | 72 | 121 | 0.9 | 7.0 | 0.00 | 0.00 | 0.00 | 61 | 1007.8 |
| 20260506172404 | 72 | 241 | 1.7 | 5.2 | 0.00 | 0.00 | 0.00 | 62 | 1007.6 |
| 20260506170403 | 71 | 254 | 2.6 | 6.1 | 0.00 | 0.00 | 0.00 | 62 | 1007.8 |
| 20260506165403 | 72 | 310 | 0.9 | 5.2 | 0.00 | 0.00 | 0.00 | 62 | 1007.9 |
| 20260506164404 | 72 | 186 | 1.7 | 6.1 | 0.00 | 0.00 | 0.00 | 62 | 1008.0 |
| 20260506163404 | 72 | 197 | 1.7 | 6.1 | 0.00 | 0.00 | 0.00 | 62 | 1008.1 |
| 20260506161404 | 71 | 143 | 1.7 | 5.2 | 0.00 | 0.00 | 0.00 | 63 | 1008.3 |
| 20260506160404 | 71 | 184 | 0.9 | 6.1 | 0.00 | 0.00 | 0.00 | 63 | 1008.5 |
| 20260506155404 | 71 | 238 | 1.7 | 6.1 | 0.00 | 0.00 | 0.00 | 62 | 1008.9 |
| 20260506154404 | 72 | 108 | 1.7 | 5.2 | 0.00 | 0.00 | 0.00 | 62 | 1008.9 |
| 20260506153403 | 72 | 198 | 1.7 | 7.0 | 0.00 | 0.00 | 0.00 | 60 | 1009.1 |
| 20260506152404 | 73 | 100 | 1.7 | 6.1 | 0.00 | 0.00 | 0.00 | 60 | 1009.1 |
| 20260506151404 | 73 | 105 | 1.7 | 6.1 | 0.00 | 0.00 | 0.00 | 59 | 1009.2 |
| 20260506150404 | 73 | 222 | 1.7 | 7.0 | 0.00 | 0.00 | 0.00 | 61 | 1009.2 |
| 20260506143404 | 71 | 195 | 1.7 | 6.1 | 0.00 | 0.00 | 0.00 | 64 | 1009.2 |
| 20260506142404 | 71 | 261 | 1.7 | 4.3 | 0.00 | 0.00 | 0.00 | 64 | 1009.0 |
| 20260506140403 | 69 | 257 | 2.6 | 7.0 | 0.00 | 0.00 | 0.00 | 67 | 1009.2 |
| 20260506135404 | 69 | 185 | 1.7 | 6.1 | 0.00 | 0.00 | 0.00 | 68 | 1009.2 |
| 20260506134403 | 67 | 145 | 0.9 | 5.2 | 0.00 | 0.00 | 0.00 | 71 | 1009.4 |
| 20260506133403 | 67 | 245 | 0.9 | 5.2 | 0.00 | 0.00 | 0.00 | 71 | 1009.9 |
| 20260506132404 | 67 | 142 | 1.7 | 6.1 | 0.00 | 0.00 | 0.00 | 72 | 1009.8 |
| 20260506131404 | 67 | 197 | 1.7 | 4.3 | 0.00 | 0.00 | 0.00 | 72 | 1009.7 |
| 20260506125404 | 66 | 251 | 1.7 | 6.1 | 0.00 | 0.00 | 0.00 | 74 | 1010.1 |
| 20260506123404 | 63 | 253 | 0.9 | 4.3 | 0.00 | 0.00 | 0.00 | 79 | 1010.0 |
| 20260506122405 | 63 | 144 | 0.0 | 5.2 | 0.00 | 0.00 | 0.00 | 79 | 1009.9 |
| 20260506121404 | 63 | 252 | 0.9 | 4.3 | 0.00 | 0.00 | 0.00 | 79 | 1009.9 |
| 20260506120404 | 62 | 230 | 0.9 | 4.3 | 0.00 | 0.00 | 0.00 | 81 | 1010.3 |
| 20260506115404 | 62 | 271 | 0.9 | 4.3 | 0.00 | 0.00 | 0.00 | 82 | 1010.3 |
| 20260506113404 | 62 | 5 | 0.9 | 4.3 | 0.00 | 0.00 | 0.00 | 82 | 1010.6 |
| 20260506112404 | 61 | 242 | 1.7 | 4.3 | 0.00 | 0.00 | 0.00 | 82 | 1010.2 |
| 20260506111404 | 61 | 267 | 0.9 | 4.3 | 0.00 | 0.00 | 0.00 | 82 | 1010.2 |
| 20260506105404 | 61 | 114 | 0.9 | 4.3 | 0.00 | 0.00 | 0.00 | 83 | 1010.3 |
| 20260506104404 | 61 | 237 | 0.9 | 5.2 | 0.00 | 0.00 | 0.00 | 83 | 1010.3 |
| 20260506103403 | 61 | 232 | 0.9 | 2.6 | 0.00 | 0.00 | 0.00 | 83 | 1010.4 |
| 20260506102404 | 61 | 237 | 0.0 | 2.6 | 0.00 | 0.00 | 0.00 | 83 | 1010.3 |
| 20260506100404 | 60 | 260 | 0.9 | 2.6 | 0.00 | 0.00 | 0.00 | 84 | 1010.2 |
| 20260506095404 | 60 | 209 | 0.0 | 2.6 | 0.00 | 0.00 | 0.00 | 84 | 1010.1 |
| 20260506094404 | 60 | 249 | 0.9 | 2.6 | 0.00 | 0.00 | 0.00 | 83 | 1009.9 |
| 20260506093404 | 60 | 239 | 0.0 | 4.3 | 0.00 | 0.00 | 0.00 | 83 | 1010.1 |
| 20260506092404 | 60 | 123 | 0.9 | 4.3 | 0.00 | 0.00 | 0.00 | 83 | 1009.9 |
| 20260506091404 | 60 | 269 | 1.7 | 4.3 | 0.00 | 0.00 | 0.00 | 82 | 1010.1 |
| 20260506090404 | 61 | 89 | 0.9 | 4.3 | 0.00 | 0.00 | 0.00 | 82 | 1010.0 |